Regional Weather Roundup
Issued by NWS Burlington, VT

Home | Current Version | Previous Version | Text Only | Print | Product List | Glossary On
Versions: 1 2 3 4 5 6 7 8 9 10 11 12 13 14 15 16 17 18 19 20 21 22 23 24 25 26 27 28 29 30 31 32 33 34 35 36 37 38 39 40 41 42 43 44 45 46 47 48 49 50
000
ASUS41 KBTV 172330
RWRBTV
VERMONT REGIONAL WEATHER ROUNDUP
NATIONAL WEATHER SERVICE BURLINGTON VT
600 PM EST SUN DEC 17 2017

NOTE: "FAIR" INDICATES FEW OR NO CLOUDS BELOW 12,000 FEET WITH NO
SIGNIFICANT WEATHER AND/OR OBSTRUCTIONS TO VISIBILITY.

* THESE REPORTS ARE NOT UNDER NWS QUALITY CONTROL AND/OR DO NOT
  REPORT WEATHER SUCH AS PRECIPITATION AND FOG.

VTZ001>019-180000-
_____VERMONT_____


CITY           SKY/WX    TMP DP  RH WIND       PRES   REMARKS
BURLINGTON     PTCLDY    11   1  64 NW6       30.30R WCI   1
MONTPELIER     CLOUDY     4   0  83 CALM      30.25R
MORRISVILLE    CLOUDY    -1  -3  91 CALM      30.26F
ST. JOHNSBURY*   N/A      6   3  87 MISG      30.24S
LYNDONVILLE*   FAIR       5   0  79 CALM      30.22F
MIDDLEBURY*    FAIR       9   5  83 CALM      30.28R
RUTLAND*       CLOUDY    10   4  76 CALM      30.25R
SPRINGFIELD    CLOUDY    16   3  56 CALM      30.24S
HIGHGATE*      FAIR       0  -2  90 CALM      30.32S
NEWPORT*       FAIR       1  -3  83 CALM      30.24F
BENNINGTON     CLOUDY    16   8  71 CALM      30.22R
SUTTON*          N/A      1 N/A N/A MISG        N/A
ISLAND POND*     N/A     -4 N/A N/A CALM        N/A
GALLUP MILLS*    N/A     -2 N/A N/A MISG        N/A
UNION VILLAGE*   N/A      9 N/A N/A MISG        N/A
MT. MANSFIELD*   N/A      7 N/A N/A NW24        N/A  WCI -15

_____LAKE CHAMPLAIN_____


CITY           SKY/WX    TMP DP  RH WIND       PRES   REMARKS
BURTON ISLAND*   N/A     10   7  85 E2          N/A
COLCHESTER RF*   N/A     16  12  86 NE10        N/A  WCI   3
DIAMOND ISL*     N/A     19  12  73 NW7         N/A  WCI  10

$$

NYZ007-026>031-035-052-083-087-180000-
_____NORTHERN NEW YORK_____


CITY           SKY/WX    TMP DP  RH WIND       PRES   REMARKS
PLATTSBURGH    CLOUDY    10   4  76 NW5       30.32R WCI   2
SARANAC LAKE   CLOUDY     1   0  95 CALM      30.14S
MASSENA        PTCLDY     1  -2  87 CALM      30.32F
OGDENSBURG*    FAIR       2  -1  85 E5        30.28F WCI  -7
POTSDAM*       MOCLDY     1  -2  85 NE5       30.27S WCI  -8
STARK FALLS*     N/A      5 N/A N/A E1          N/A
WATERTOWN      CLOUDY     9   2  73 E5        30.26F WCI   1
FT DRUM        CLOUDY     7  -1  68 NE5       30.22F WCI  -2
ALBANY         CLOUDY    24  10  55 NW6       30.27R WCI  17
GLENS FALLS    PTCLDY    12   7  80 N3        30.27R

$$
NHZ002-005-011-180000-
_____NEW HAMPSHIRE_____


CITY           SKY/WX    TMP DP  RH WIND       PRES   REMARKS
LEBANON        CLOUDY     9   5  84 CALM      30.25R
KEENE          PTCLDY    17  10  74 CALM      30.24R
MT WASHINGTON  PTCLDY     7 -18  30 NW49        N/A  WCI -21
PLYMOUTH       FAIR      15   3  60 NW5       30.23S WCI   7
WHITEFIELD     CLOUDY     0  -3  87 CALM      30.21F

$$

_____REGIONAL QUEBEC LOCATIONS_____


CITY           SKY/WX    TMP DP  RH WIND       PRES   REMARKS
MONTREAL       PTCLDY     7   0  72 W3        30.31F
QUEBEC CITY    CLEAR      0  -8  71 SW9       30.30R WCI -16
SHERBROOKE     PTCLDY     0  -6  78 SE2       30.26R

_____REGIONAL ONTARIO LOCATIONS_____


CITY           SKY/WX    TMP DP  RH WIND       PRES   REMARKS
OTTAWA         CLOUDY     1  -6  71 S3        30.29S

______KEY______
VSB  - VISIBILITY IN MILES
WCI  - WIND CHILL INDEX
HX   - HEAT INDEX
$$
NNNN



USA.gov is the U.S. government's official web portal to all federal, state and local government web resources and services.